Date,TemperatureHighF,TemperatureAvgF,TemperatureLowF,DewpointHighF,DewpointAvgF,DewpointLowF,HumidityHigh,HumidityAvg,HumidityLow,PressureMaxIn,PressureMinIn,WindSpeedMaxMPH,WindSpeedAvgMPH,GustSpeedMaxMPH,PrecipitationSumIn
2013-9-9,80.8,79.1,77.2,61.6,58.9,57.0,58,50,45,29.06,29.03,5,1,9,0.00
2013-9-10,78.6,75.9,73.2,63.3,61.5,59.5,71,61,52,29.06,29.03,6,1,7,0.00
2013-9-11,99.5,80.1,71.6,68.3,51.9,31.9,85,45,10,29.09,28.91,12,2,14,0.79
2013-9-12,86.7,69.0,51.4,70.9,54.5,34.2,97,66,16,29.00,28.82,8,2,14,0.79
2013-9-13,72.1,55.6,42.6,51.1,36.0,20.7,86,55,16,29.12,28.94,10,1,10,0.00
2013-9-14,78.4,55.7,40.1,47.0,31.6,18.1,92,49,12,29.15,29.03,7,1,8,0.00
2013-9-15,82.2,60.4,46.9,57.6,44.8,23.8,97,67,14,29.15,28.94,10,2,12,0.16
2013-9-16,69.1,56.3,46.9,59.2,48.0,33.6,97,77,27,29.29,29.06,7,1,9,0.04
2013-9-17,79.2,61.1,45.9,49.8,39.7,24.1,97,52,15,29.29,29.09,11,2,11,0.00
2013-9-18,89.2,70.8,58.8,63.2,47.8,27.2,84,53,12,29.12,28.97,7,1,8,0.91
2013-9-19,84.2,71.0,65.5,69.9,66.0,55.4,97,85,38,29.03,28.85,8,1,10,0.94
2013-9-20,83.7,70.5,61.2,70.3,65.3,53.8,97,86,37,28.91,28.70,9,2,16,0.59
2013-9-21,74.3,58.3,47.7,65.9,43.9,27.3,97,65,19,28.91,28.70,10,2,11,0.08
2013-9-22,75.6,55.5,44.1,52.5,36.3,20.9,93,58,15,29.03,28.85,6,1,9,0.00
2013-9-23,75.4,56.5,42.8,47.7,35.8,22.5,97,55,15,29.09,29.00,9,3,11,0.00
2013-9-24,78.1,58.5,44.1,47.8,36.4,22.5,96,52,15,29.06,28.85,9,2,10,0.00
2013-9-25,83.3,60.7,48.9,50.5,41.1,23.8,93,59,14,28.97,28.85,9,1,12,0.00
2013-9-26,85.6,62.1,48.9,55.6,39.6,23.7,95,52,13,29.09,28.91,8,1,12,0.00
2013-9-27,88.7,63.6,47.5,50.8,39.6,23.2,92,51,13,29.15,29.06,7,2,8,0.00
2013-9-28,88.5,67.2,51.6,52.4,43.5,26.9,88,51,13,29.12,28.94,7,1,10,0.00
2013-9-29,64.4,60.4,55.4,63.5,57.3,50.2,97,91,62,29.00,28.94,7,0,7,0.31
2013-9-30,79.2,63.1,55.4,62.6,54.0,34.3,97,79,21,28.97,28.88,9,1,10,0.00